Retour au catalogue

STARLINK-34910

ActifCommunicationsVLEO
NORAD 66269·PAYLOAD·🇺🇸 United States

Lancé Oct 31, 2025 depuis Vandenberg Space Force Base

Loading…

Prochains Passages (prochaines 24 heures)

TLE

FraisSource: CelesTrak SupGP

Époque: Sep 15, 2026, 03:53 UTC

1 66269C 25247E   26258.16229167  .00048225  00000+0  14238-2 0  2584
2 66269  53.1604  27.0119 0001114  94.9226 261.5729 15.34388580    17

Suivez STARLINK-34910 en temps réel avec AllMySat

Download on the App Store